SCP
0 0 0 0 0 0 0 0 0 0 0 0 0 0 0 0 0 0 0 0 0 0 0 0 0 0 0 0 0 0 0 0 0 0 0 0 0 0 0 0 0 0 0 0
0 0 0 0 0 0 0 0 0 0 0 0 0 0 0 0 0 0 0 0 0 0 0 0 0 0 0 0 0 0 0 0 0 0 0 0 0 0 0 0 0 0 0 0
0 0 0 0 0 0 0 0 0 0 0 0 0 0 0 0 0 0 0 0 0 0 0 0 0 0 0 0 0 0 0 0 0 0 0 0 0 0 0 0 0 0 0 0
0 0 0 0 0 0 0 0 0 0 0 0 0 0 0 0 0 0 0 0 0 0 0 0 0 0 0 0 0 0 0 0 0 0 0 0 0 0 0 0 0 0 0 0
0 0 0 0 0 0 0 0 0 0 0 0 0 0 0 0 0 0 0 0 0 0 0 0 0 0 0 0 0 0 0 0 0 0 0 0 0 0 0 0 0 0 0 0
0 0 0 0 0 0 0 0 0 0 0 0 0 0 0 0 0 0 0 0 0 0 0 0 0 0 0 0 0 0 0 0 0 0 0 0 0 0 0 0 0 0 0 0
0 0 0 0 0 0 0 0 0 0 0 0 0 0 0 0 0 0 0 0 0 0 0 0 0 0 0 0 0 0 0 0 0 0 0 0 0 0 0 0 0 0 0 0
0 0 0 0 0 0 0 0 0 0 0 0 0 0 0 0 0 0 0 0 0 0 0 0 0 0 0 0 0 0 0 0 0 0 0 0 0 0 0 0 0 0 0 0
0 0 0 0 0 0 0 0 0 0 0 0 0 0 0 0 0 0 0 0 0 0 0 0 0 0 0 0 0 0 0 0 0 0 0 0 0 0 0 0 0 0 0 0
0 0 0 0 0 0 0 -0 0 0 0 0 0 0 0 0 0 0 0 0 0 0 0 0 0 0 0 0 0 0 0 0 0 0 0 0 0 0 0 0 0 0 0 0
0 0 0 0 0 0 0 0 0 0 0 0 0 0 0 0 0 0 0 0 0 0 0 0 0 0 0 0 0 0 0 0 0 0 0 0 0 0 0 0 0 0 0 0
0 0 0 0 -0 -0 0 0 0 0 0 0 0 0 0 0 0 0 0 0 0 0 0 0 0 0 0 0 0 0 0 0 0 0 0 0 0 0 0 0 0 0 0 0
0 0 0 -0 -0 -0 0 0 0 0 0 0 0 0 0 0 0 0 0 0 0 0 0 0 0 0 0 0 0 0 0 0 0 0 0 0 0 0 0 0 0 0 0 0
0 0 0 0 0 0 0 0 0 0 0 0 0 0 0 0 0 0 0 0 0 0 0 0 0 0 0 0 0 0 0 0 0 0 0 0 0 0 0 0 0 0 0 0
0 0 0 0 0 0 0 0 0 0 0 0 0 0 0 0 0 0 0 0 0 0 0 0 0 0 0 0 0 0 0 0 0 0 0 0 0 0 0 0 0 0 0 0
0 0 0 0 0 0 0 0 0 0 0 0 0 0 0 0 0 0 0 0 0 0 0 0 0 0 0 0 0 0 0 0 0 0 0 0 0 0 0 0 0 0 0 0
0 0 0 0 0 0 0 0 0 0 0 0 0 0 0 0 0 0 0 0 0 0 0 0 0 0 0 0 0 0 0 0 0 0 0 0 0 0 0 0 0 0 0 0
0 0 0 0 0 0 0 0 0 0 0 0 0 0 0 0 0 0 0 0 0 0 0 0 0 0 0 0 0 0 0 0 0 0 0 0 0 0 0 0 0 0 0 0
0 0 0 0 0 0 0 0 0 0 0 0 0 0 0 0 0 0 0 0 0 0 0 0 0 0 0 0 0 0 0 0 0 0 0 0 0 0 0 0 0 0 0 0
0 0 0 0 0 0 0 0 0 0 0 0 0 0 0 0 0 0 0 0 0 0 0 0 0 0 0 0 0 0 0 0 0 0 0 0 0 0 0 0 0 0 0 0
0 0 0 0 0 0 0 0 0 0 0 0 0 0 0 0 0 0 0 0 0 0 0 0 0 0 0 0 0 0 0 0 0 0 0 0 0 0 0 0 0 0 0 0
0 0 0 0 0 0 0 0 0 0 0 0 0 0 0 -0 0 0 0 0 0 0 0 0 0 0 0 0 0 0 0 0 0 0 0 0 0 0 0 0 0 0 0 0
0 0 0 0 0 0 0 0 0 0 0 0 0 0 0 0 0 0 0 0 0 0 0 0 0 0 0 0 0 0 0 0 0 0 0 0 0 0 0 0 0 0 0 0
0 0 0 0 0 0 0 0 0 0 0 0 0 0 0 0 0 0 0 0 0 0 0 0 0 0 0 0 0 0 0 0 0 0 0 0 0 0 0 0 0 0 0 0
0 0 0 0 0 0 0 0 0 0 0 0 0 0 0 0 0 0 0 0 0 0 0 0 0 0 0 0 0 0 0 0 0 0 0 0 0 0 0 0 0 0 0 0
0 0 0 0 0 0 0 0 0 0 0 0 0 0 0 0 0 0 0 0 0 0 0 0 0 0 0 0 0 0 0 0 0 0 0 0 0 0 0 0 0 0 0 0
0 0 0 0 0 0 0 0 0 0 0 0 0 0 0 0 0 0 0 0 0 0 0 0 0 0 0 0 0 0 0 0 0 0 0 0 0 0 0 0 0 0 0 0
Wind_Speed
1 1 2 2 3 4 4 5 5 4 3 2 1 1 2 3 4 4 4 4 4 3 3 3 3 3 4 4 5 6 7 7 6 6 5 6 5 5 5 4 5 5 4 3
2 1 1 1 1 3 3 3 4 2 2 1 2 3 4 4 4 4 4 5 5 4 4 4 4 4 4 5 6 6 7 7 6 6 6 6 6 5 5 4 4 4 4 4
1 2 3 3 3 4 3 1 3 5 3 0 2 3 3 3 4 4 5 5 6 6 5 5 5 5 6 6 6 7 7 7 7 7 7 6 6 6 5 5 4 4 4 4
1 2 2 4 2 2 5 4 3 3 2 1 1 2 4 4 4 5 6 7 6 6 7 6 5 5 5 4 6 8 8 8 8 8 7 7 6 6 5 4 4 4 4 4
2 2 3 3 2 1 3 2 4 2 3 3 2 2 1 4 5 4 5 6 6 6 7 7 6 5 3 4 6 7 8 8 9 9 8 8 7 6 5 4 4 3 4 5
2 2 5 3 2 2 3 1 2 3 3 4 4 1 2 6 7 7 7 6 6 6 6 6 6 3 3 4 6 8 8 8 8 9 9 9 8 6 4 4 4 4 4 4
2 3 5 2 4 1 3 3 1 2 2 3 1 3 6 8 7 7 7 7 7 6 6 6 5 3 3 4 6 6 5 6 7 8 8 8 7 5 5 5 5 4 4 4
3 4 5 2 2 2 2 2 2 2 2 3 4 5 6 7 7 8 8 7 7 6 7 6 4 3 4 5 4 3 5 6 7 7 7 6 7 6 6 6 6 5 5 4
4 3 0 2 3 3 2 2 1 2 3 4 5 6 7 7 7 7 7 8 7 6 7 6 5 3 5 4 2 4 5 6 6 7 6 7 8 8 7 6 6 5 5 5
1 1 2 2 3 3 2 1 1 2 3 4 5 7 8 8 8 8 8 8 7 7 7 7 6 5 5 4 3 4 6 6 6 7 7 7 6 7 7 7 7 6 6 6
1 2 2 1 1 1 1 2 2 3 3 4 6 7 7 8 8 8 8 7 7 7 8 8 7 6 5 4 3 5 5 6 6 7 7 7 7 7 8 7 8 8 7 6
4 4 3 3 2 1 1 2 3 4 5 5 5 7 8 7 7 7 8 8 8 8 8 8 8 7 6 4 3 5 5 6 6 6 6 6 6 6 11 10 14 15 13 10
3 2 2 2 2 1 2 4 4 5 6 6 6 6 7 8 7 7 8 8 8 9 9 9 8 7 6 4 4 5 6 5 5 6 6 6 6 6 6 8 14 16 17 17
2 2 1 1 2 3 4 5 4 5 5 5 6 6 7 8 8 8 9 9 9 9 9 8 8 7 5 4 5 6 5 6 6 6 6 6 7 6 6 6 6 6 11 17
2 2 3 2 3 3 4 4 5 6 6 6 6 6 7 8 9 9 9 9 9 9 9 8 8 7 5 4 5 5 5 4 5 5 5 6 6 6 6 7 6 5 4 7
2 1 1 2 4 5 5 5 6 7 7 7 7 7 8 8 9 10 9 8 8 9 9 9 9 7 5 5 5 4 4 6 5 4 5 5 6 6 6 6 6 6 6 6
2 2 3 4 5 6 6 6 6 7 7 8 8 8 8 8 9 9 9 8 8 9 8 8 8 7 6 5 5 4 4 4 6 5 4 5 5 6 6 6 6 6 6 7
4 4 4 5 5 6 7 6 6 7 7 8 8 8 8 8 9 10 9 8 8 8 7 6 7 6 5 5 4 4 3 3 3 4 4 4 5 5 5 6 7 7 5 6
4 4 5 5 5 5 6 7 7 7 7 7 7 8 8 8 9 9 8 8 8 8 7 6 9 6 5 5 5 3 3 3 3 3 3 5 5 4 5 5 5 6 5 5
4 4 5 5 5 5 6 7 7 7 7 6 7 8 8 8 8 8 7 7 6 6 6 7 7 5 5 5 6 3 3 3 3 3 3 3 3 4 4 4 4 4 4 4
5 5 6 6 6 6 6 6 6 8 8 6 7 8 9 9 7 6 6 7 6 5 6 9 5 4 4 5 5 3 3 3 3 3 3 3 3 3 3 3 3 3 3 3
5 5 6 6 6 7 6 6 6 7 8 7 7 7 8 8 7 6 6 6 6 8 6 4 4 6 6 6 2 3 3 3 2 2 2 2 2 2 2 2 2 2 2 3
5 5 6 6 7 7 7 6 6 6 7 7 7 7 7 7 5 5 6 4 4 7 5 4 6 9 8 3 2 2 2 2 2 2 2 2 2 1 1 2 1 2 2 2
5 5 6 6 5 6 8 7 6 6 6 7 7 7 6 6 5 4 5 8 10 9 4 6 9 8 6 2 2 2 2 2 1 1 1 1 1 1 1 1 1 1 2 2
5 5 5 5 6 6 7 7 6 6 6 5 6 6 5 4 5 5 4 5 8 8 4 6 8 7 3 2 2 2 1 1 1 1 1 1 1 1 1 1 1 1 1 2
4 4 5 5 5 5 5 4 5 5 5 6 5 4 4 4 5 5 4 4 6 6 4 3 3 4 2 2 2 2 1 2 2 1 1 1 1 1 1 1 2 1 2 2
5 4 4 5 4 4 4 4 5 5 5 5 6 5 4 4 4 4 4 4 3 3 3 2 2 2 2 2 2 2 2 1 1 1 1 1 1 1 1 2 2 2 2 2
Wind_Direction
231 241 178 203 204 178 172 174 173 195 190 231 121 63 42 40 45 42 27 12 354 330 309 294 273 246 219 202 184 167 160 164 167 159 150 144 143 144 143 146 148 146 141 141
1 4 69 349 268 197 197 192 195 180 233 289 75 78 57 41 37 25 2 347 336 326 318 301 272 253 231 210 193 174 173 175 164 156 153 153 151 149 148 148 148 149 153 153
296 343 38 302 266 211 181 190 186 204 214 182 79 77 69 47 32 5 341 334 331 318 302 290 276 250 233 217 190 180 181 175 167 162 161 162 158 157 160 161 160 161 162 160
128 73 222 255 321 127 120 53 32 89 67 41 102 132 109 71 31 357 339 331 322 314 306 297 283 267 241 209 188 186 183 178 173 168 167 163 163 169 168 162 167 167 170 169
139 188 265 289 354 61 126 69 7 59 42 12 339 125 130 30 9 340 321 312 304 299 293 293 290 277 241 208 191 188 190 186 179 173 169 169 175 176 170 164 167 170 170 171
150 188 233 248 313 323 107 128 5 50 38 8 18 48 280 344 340 333 326 319 313 313 305 302 298 285 231 215 200 203 200 189 176 172 173 178 178 170 163 162 172 170 176 182
180 227 259 285 312 17 160 228 79 45 27 11 356 258 293 318 322 321 317 314 316 317 315 306 305 291 251 232 223 217 190 173 172 174 175 173 167 162 161 163 167 176 184 193
174 207 248 337 41 116 164 78 60 18 355 331 302 300 307 312 313 317 318 319 321 321 317 314 311 294 271 257 244 194 174 175 176 174 171 166 165 168 169 172 180 189 194 203
190 205 101 51 96 83 80 75 9 332 323 319 312 310 311 309 310 312 313 315 318 315 314 314 311 294 276 275 236 189 180 183 179 173 171 168 173 177 180 186 193 196 199 210
144 164 127 98 95 72 57 38 324 312 312 315 306 308 311 311 313 315 315 314 314 312 310 309 311 302 278 272 232 196 192 187 178 176 177 178 181 185 190 194 199 201 203 212
185 154 112 140 122 30 4 357 333 317 304 303 304 305 306 307 308 311 313 313 312 307 303 303 307 303 288 270 228 211 204 193 187 186 185 189 195 199 200 205 203 203 206 205
208 194 186 223 226 249 307 305 303 307 303 300 295 296 302 300 300 303 307 311 311 309 306 304 303 299 290 269 233 217 213 204 197 192 192 194 197 208 217 215 221 223 219 212
177 172 189 225 237 255 282 290 294 295 295 300 303 301 302 301 302 303 304 307 308 306 303 301 297 294 291 276 246 232 227 214 202 198 197 197 198 204 213 222 227 230 229 227
153 125 197 224 254 286 289 290 292 293 291 290 295 300 300 301 303 303 302 303 304 302 300 297 294 291 294 287 260 245 238 222 212 207 203 202 203 205 206 208 214 225 229 229
173 178 221 258 279 292 298 301 301 298 296 295 295 298 301 302 301 299 300 300 301 299 298 296 292 290 293 287 274 257 244 231 219 214 209 207 203 202 206 210 216 218 211 226
201 237 261 275 286 292 296 296 292 291 293 293 295 296 296 295 295 296 297 299 299 299 301 299 293 292 288 279 274 269 256 242 230 220 210 207 204 205 207 211 215 217 219 216
175 245 259 272 280 285 285 284 281 286 289 289 291 293 295 296 297 298 299 297 291 291 292 293 295 296 287 272 266 267 266 255 238 227 217 212 210 211 211 211 215 220 223 213
204 222 231 246 263 278 286 287 284 287 287 288 292 293 293 292 293 296 298 299 295 292 290 290 294 297 290 280 267 262 260 258 244 233 225 220 218 215 215 216 217 221 222 218
226 239 251 258 261 264 271 278 281 281 283 286 288 288 287 286 288 291 293 294 295 295 295 296 304 302 294 290 285 262 256 257 255 245 232 234 229 221 219 220 221 221 217 210
247 254 260 266 267 261 267 274 279 281 279 278 282 287 289 288 289 292 292 286 278 277 286 293 296 291 288 288 288 268 256 252 256 255 243 235 231 224 221 221 220 218 215 214
258 264 268 271 275 274 268 271 276 279 282 279 276 280 285 289 290 290 291 292 290 287 289 295 295 289 286 288 290 276 264 256 255 250 244 241 238 231 223 220 220 220 218 217
256 263 268 272 275 281 280 274 271 275 281 281 279 278 283 288 291 288 276 273 287 299 302 290 287 290 296 298 282 279 273 266 263 258 251 247 242 238 232 225 222 221 218 217
258 261 266 269 271 277 285 281 274 272 275 276 280 282 281 281 284 287 291 286 286 297 301 291 300 301 303 301 285 282 282 278 273 269 265 260 253 243 236 235 230 227 224 223
266 267 268 272 276 280 283 283 280 274 272 273 272 273 277 284 285 267 265 291 301 303 298 301 310 312 316 314 295 288 289 289 285 283 284 282 269 253 242 240 237 236 234 234
270 272 273 277 278 274 274 284 289 285 282 278 277 274 266 259 270 285 285 285 295 303 300 306 314 320 325 312 303 297 294 290 287 292 291 286 279 270 258 248 241 239 240 241
275 274 272 267 266 274 279 281 283 286 289 290 290 282 276 272 273 278 282 283 286 297 299 299 306 313 310 305 303 303 306 316 327 332 313 301 294 288 280 274 265 254 249 248
286 282 283 287 283 274 274 274 278 286 288 288 293 294 290 287 287 286 284 284 286 287 288 291 293 292 293 296 300 305 307 309 308 303 301 296 294 292 291 286 280 274 266 260